This is the latest recevied weather packets stored in our database for station/object K3CHZ. If no packets are shown the sender has not sent any weather packets the latest 10 day(s).
| Time | Temp. | Humidity | Pressure | Rain* | Wind** | Luminosity | Snow |
|---|---|---|---|---|---|---|---|
| 1778257038 | 18.89° C | 44% | 1014.4 hPa | 0 mm | - | - | - |
| 1778256738 | 18.33° C | 41% | 1014.4 hPa | 0 mm | - | - | - |
| 1778256438 | 18.33° C | 42% | 1014.4 hPa | 0 mm | - | - | - |
| 1778256138 | 17.78° C | 40% | 1014.4 hPa | 0 mm | - | - | - |
| 1778255842 | 17.78° C | 42% | 1014.4 hPa | 0 mm | - | - | - |
| 1778255238 | 18.33° C | 44% | 1014.6 hPa | 0 mm | - | - | - |
| 1778254638 | 17.78° C | 44% | 1014.9 hPa | 0 mm | - | - | - |
| 1778254340 | 17.78° C | 44% | 1014.9 hPa | 0 mm | - | - | - |
| 1778254036 | 17.78° C | 44% | 1015 hPa | 0 mm | - | - | - |
| 1778253735 | 17.78° C | 44% | 1015 hPa | 0 mm | - | - | - |
| 1778253436 | 17.22° C | 44% | 1015 hPa | 0 mm | - | - | - |
| 1778253135 | 17.22° C | 43% | 1015.1 hPa | 0 mm | - | - | - |
| 1778252835 | 17.22° C | 44% | 1015.2 hPa | 0 mm | - | - | - |
| 1778252536 | 16.67° C | 45% | 1015.2 hPa | 0 mm | - | - | - |
| 1778252235 | 16.11° C | 46% | 1015.3 hPa | 0 mm | - | - | - |
| 1778251935 | 16.11° C | 43% | 1015.1 hPa | 0 mm | - | - | - |
| 1778251636 | 16.11° C | 42% | 1015.4 hPa | 0 mm | - | - | - |
| 1778251335 | 16.11° C | 46% | 1015.3 hPa | 0 mm | - | - | - |
| 1778251035 | 16.11° C | 42% | 1015.4 hPa | 0 mm | - | - | - |
| 1778250735 | 15.56° C | 45% | 1015.3 hPa | 0 mm | - | - | - |
| 1778250435 | 15.56° C | 47% | 1015.3 hPa | 0 mm | - | - | - |
| 1778250137 | 15.56° C | 52% | 1015.3 hPa | 0 mm | - | - | - |
| 1778249840 | 15° C | 48% | 1015.4 hPa | 0 mm | - | - | - |
| 1778249540 | 15° C | 48% | 1015.4 hPa | 0 mm | - | - | - |
| 1778249240 | 15° C | 47% | 1015.5 hPa | 0 mm | - | - | - |
* Rain latest hour (hover to see other rain measurements)
** Current wind speed in m/s (hover to see current wind gust speed)